Location: Krakow
(50.0830°N, 19.9170°E)
Time: 13:47:30
(UTC+02:00)

Tiros 1 - Pass Details

Date: 01 February 2023
Orbit: 627 x 662 km, 48.4° (Epoch: 01 April)

Event Time Altitude Azimuth Distance (km) Brightness Sun altitude
Exits shadow 04:18:13 48° 118° (ESE) 841 7.9 -28.4°
Drops below altitude 10° 04:21:42 10° 102° (ESE) 2,045 10.6 -27.8°
Sets 04:24:03 0° 101° (E) 2,961 11.7 -27.4°
